Location: Lecco
(45.8566°N, 9.3977°E)
Time: 20:08:55
(UTC+02:00)

Courier 1B Rocket - Pass Details

Date: 25 August 2019
Orbit: 920 x 1202 km, 28.2° (Epoch: 15 September)

Event Time Altitude Azimuth Distance (km) Brightness Sun altitude
Rises 05:09:24 0° 236° (SW) 3,908 - -14.2°
Reaches altitude 10° 05:12:57 10° 220° (SW) 2,999 - -13.7°
Exits shadow 05:14:13 14° 212° (SSW) 2,746 6.8 -13.5°
Maximum altitude 05:18:00 20° 177° (S) 2,406 6.8 -12.9°
Drops below altitude 10° 05:23:12 10° 134° (SE) 3,103 7.8 -12.1°
Sets 05:26:57 0° 119° (ESE) 4,086 8.7 -11.6°
